| time (UTC) | temp C | wind direction | speed KPH | gust KPH | rain 1hr cm | rain 24hr cm | rain mn cm | humidity % | barometer mb |
| 20260507134612 | 14 | 289 | 0.0 | 3.2 | 0.00 | 0.00 | 0.00 | 64 | 1010.4 |
| 20260507133105 | 14 | 357 | 0.0 | 1.6 | 0.00 | 0.00 | 0.00 | 62 | 1010.4 |
| 20260507131617 | 12 | 354 | 0.0 | 3.2 | 0.00 | 0.00 | 0.00 | 71 | 1010.5 |
| 20260507130050 | 11 | 65 | 0.0 | 3.2 | 0.00 | 0.00 | 0.00 | 76 | 1010.5 |
| 20260507124531 | 11 | 15 | 0.0 | 1.6 | 0.00 | 0.00 | 0.00 | 85 | 1010.7 |
| 20260507123028 | 10 | 360 | 0.0 | 0.0 | 0.00 | 0.00 | 0.00 | 91 | 1010.8 |
| 20260507121509 | 9 | 264 | 0.0 | 0.0 | 0.00 | 0.00 | 0.00 | 93 | 1010.7 |
| 20260507120005 | 8 | 264 | 0.0 | 0.0 | 0.00 | 0.00 | 0.00 | 94 | 1010.7 |
| 20260507114501 | 6 | 264 | 0.0 | 0.0 | 0.00 | 0.00 | 0.00 | 95 | 1010.7 |
| 20260507113133 | 4 | 264 | 0.0 | 0.0 | 0.00 | 0.00 | 0.00 | 95 | 1010.5 |
| 20260507111558 | 3 | 264 | 0.0 | 0.0 | 0.00 | 0.00 | 0.00 | 95 | 1010.2 |
| 20260507110058 | 3 | 264 | 0.0 | 0.0 | 0.00 | 0.00 | 0.00 | 95 | 1010.1 |
| 20260507104606 | 3 | 264 | 0.0 | 0.0 | 0.00 | 0.03 | 0.00 | 95 | 1009.9 |
| 20260507103054 | 3 | 264 | 0.0 | 0.0 | 0.00 | 0.03 | 0.00 | 94 | 1009.9 |
| 20260507101556 | 3 | 264 | 0.0 | 0.0 | 0.00 | 0.03 | 0.00 | 94 | 1009.9 |
| 20260507100046 | 3 | 264 | 0.0 | 0.0 | 0.00 | 0.03 | 0.00 | 94 | 1009.9 |
| 20260507094539 | 3 | 264 | 0.0 | 0.0 | 0.00 | 0.03 | 0.00 | 94 | 1009.8 |
| 20260507093017 | 3 | 264 | 0.0 | 0.0 | 0.00 | 0.03 | 0.00 | 94 | 1009.7 |
| 20260507091517 | 3 | 264 | 0.0 | 0.0 | 0.00 | 0.03 | 0.00 | 94 | 1009.6 |
| 20260507090057 | 3 | 264 | 0.0 | 0.0 | 0.00 | 0.03 | 0.00 | 94 | 1009.6 |
| 20260507084600 | 4 | 264 | 0.0 | 0.0 | 0.00 | 0.03 | 0.00 | 94 | 1009.4 |
| 20260507083043 | 4 | 264 | 0.0 | 0.0 | 0.00 | 0.03 | 0.00 | 94 | 1009.3 |
| 20260507081542 | 4 | 264 | 0.0 | 0.0 | 0.00 | 0.03 | 0.00 | 94 | 1009.4 |
| 20260507080041 | 4 | 264 | 0.0 | 0.0 | 0.00 | 0.03 | 0.00 | 94 | 1009.3 |
| 20260507074542 | 4 | 264 | 0.0 | 0.0 | 0.00 | 0.36 | 0.00 | 93 | 1009.4 |
| 20260507073037 | 4 | 264 | 0.0 | 0.0 | 0.00 | 0.36 | 0.00 | 93 | 1009.3 |
| 20260507071541 | 5 | 264 | 0.0 | 0.0 | 0.00 | 0.36 | 0.00 | 93 | 1009.3 |
| 20260507070037 | 5 | 264 | 0.0 | 0.0 | 0.00 | 0.36 | 0.00 | 93 | 1009.2 |
| 20260507064543 | 5 | 264 | 0.0 | 0.0 | 0.00 | 0.79 | 0.00 | 93 | 1009.4 |
| 20260507063020 | 5 | 264 | 0.0 | 0.0 | 0.00 | 0.79 | 0.00 | 93 | 1009.3 |
| 20260507061521 | 5 | 264 | 0.0 | 0.0 | 0.00 | 0.79 | 0.00 | 93 | 1009.3 |
| 20260507060031 | 5 | 264 | 0.0 | 0.0 | 0.00 | 0.79 | 0.00 | 92 | 1009.4 |
| 20260507054520 | 5 | 264 | 0.0 | 0.0 | 0.00 | 1.09 | 0.00 | 92 | 1009.4 |
| 20260507053016 | 5 | 264 | 0.0 | 0.0 | 0.00 | 1.09 | 0.00 | 92 | 1009.4 |
| 20260507051514 | 5 | 264 | 0.0 | 0.0 | 0.00 | 1.09 | 0.00 | 91 | 1009.3 |
| 20260507050035 | 5 | 264 | 0.0 | 0.0 | 0.00 | 1.09 | 0.00 | 91 | 1009.6 |
| 20260507044519 | 6 | 264 | 0.0 | 0.0 | 0.00 | 1.22 | 0.00 | 91 | 1009.7 |
| 20260507043051 | 6 | 264 | 0.0 | 0.0 | 0.00 | 1.22 | 0.00 | 90 | 1009.8 |
| 20260507041549 | 6 | 264 | 0.0 | 0.0 | 0.00 | 1.22 | 0.00 | 90 | 1009.6 |
| 20260507040035 | 6 | 264 | 0.0 | 0.0 | 0.00 | 1.22 | 0.00 | 89 | 1009.3 |
| 20260507034538 | 7 | 264 | 0.0 | 0.0 | 0.00 | 1.42 | 1.22 | 88 | 1009.4 |
| 20260507033039 | 7 | 264 | 0.0 | 0.0 | 0.00 | 1.42 | 1.22 | 87 | 1009.5 |
| 20260507031532 | 7 | 264 | 0.0 | 0.0 | 0.00 | 1.42 | 1.22 | 85 | 1009.4 |
| 20260507030034 | 8 | 264 | 0.0 | 0.0 | 0.00 | 1.42 | 1.22 | 83 | 1009.4 |
| 20260507024530 | 9 | 264 | 0.0 | 0.0 | 0.00 | 1.45 | 1.22 | 82 | 1009.6 |
| 20260507023024 | 10 | 264 | 0.0 | 0.0 | 0.00 | 1.45 | 1.22 | 80 | 1009.4 |
| 20260507021543 | 10 | 264 | 0.0 | 0.0 | 0.00 | 1.45 | 1.22 | 78 | 1009.3 |
| 20260507020020 | 10 | 264 | 0.0 | 0.0 | 0.00 | 1.45 | 1.22 | 76 | 1009.2 |
| 20260507014512 | 10 | 264 | 0.0 | 0.0 | 0.00 | 1.57 | 1.22 | 73 | 1009.3 |
| 20260507013010 | 11 | 264 | 0.0 | 0.0 | 0.00 | 1.57 | 1.22 | 72 | 1009.0 |
| 20260507011515 | 11 | 264 | 0.0 | 0.0 | 0.00 | 1.57 | 1.22 | 70 | 1008.5 |
| 20260507010008 | 11 | 264 | 0.0 | 0.0 | 0.00 | 1.57 | 1.22 | 69 | 1008.6 |
| 20260507004505 | 12 | 264 | 0.0 | 0.0 | 0.00 | 1.70 | 1.22 | 69 | 1008.7 |
| 20260507003004 | 12 | 257 | 0.0 | 0.0 | 0.00 | 1.70 | 1.22 | 67 | 1008.5 |
| 20260507001502 | 13 | 299 | 0.0 | 0.0 | 0.00 | 1.70 | 1.22 | 70 | 1008.4 |
| 20260507000046 | 13 | 49 | 0.0 | 0.0 | 0.00 | 1.70 | 1.22 | 69 | 1008.1 |
| 20260506234557 | 13 | 90 | 0.0 | 0.0 | 0.00 | 1.80 | 1.22 | 70 | 1007.8 |
| 20260506233044 | 13 | 357 | 0.0 | 0.0 | 0.00 | 1.80 | 1.22 | 68 | 1007.5 |
| 20260506231544 | 13 | 311 | 0.0 | 1.6 | 0.00 | 1.80 | 1.22 | 66 | 1007.2 |
| 20260506230041 | 13 | 30 | 0.0 | 4.8 | 0.00 | 1.80 | 1.22 | 66 | 1007.5 |
| 20260506224545 | 14 | 349 | 0.0 | 4.8 | 0.00 | 1.85 | 1.22 | 66 | 1007.4 |
| 20260506223047 | 15 | 342 | 0.0 | 4.8 | 0.00 | 1.85 | 1.22 | 64 | 1007.6 |
| 20260506221540 | 15 | 271 | 0.0 | 3.2 | 0.00 | 1.85 | 1.22 | 62 | 1007.8 |
| 20260506220039 | 16 | 33 | 0.0 | 1.6 | 0.00 | 1.85 | 1.22 | 63 | 1007.9 |
| 20260506214541 | 16 | 76 | 0.0 | 1.6 | 0.00 | 2.01 | 1.22 | 61 | 1007.4 |
| 20260506213030 | 16 | 63 | 0.0 | 1.6 | 0.00 | 2.01 | 1.22 | 60 | 1007.3 |
| 20260506211528 | 17 | 59 | 0.0 | 1.6 | 0.00 | 2.01 | 1.22 | 58 | 1007.1 |
| 20260506210033 | 17 | 77 | 0.0 | 1.6 | 0.00 | 2.01 | 1.22 | 60 | 1007.2 |
| 20260506204536 | 17 | 15 | 0.0 | 9.7 | 0.00 | 2.01 | 1.22 | 55 | 1007.0 |
| 20260506203028 | 17 | 274 | 0.0 | 3.2 | 0.00 | 2.01 | 1.22 | 50 | 1007.1 |
| 20260506201526 | 17 | 300 | 0.0 | 1.6 | 0.00 | 2.01 | 1.22 | 55 | 1006.9 |
| 20260506200023 | 17 | 76 | 0.0 | 11.3 | 0.00 | 2.01 | 1.22 | 53 | 1007.2 |
| 20260506194522 | 17 | 70 | 0.0 | 4.8 | 0.00 | 2.01 | 1.22 | 53 | 1007.3 |
| 20260506193014 | 18 | 24 | 0.0 | 3.2 | 0.00 | 2.01 | 1.22 | 55 | 1007.0 |
| 20260506191511 | 16 | 225 | 0.0 | 9.7 | 0.00 | 2.01 | 1.22 | 58 | 1007.1 |
| 20260506190009 | 17 | 143 | 3.2 | 9.7 | 0.00 | 2.01 | 1.22 | 50 | 1006.8 |
| 20260506184507 | 18 | 188 | 1.6 | 6.4 | 0.00 | 2.01 | 1.22 | 50 | 1006.9 |
| 20260506183006 | 17 | 26 | 0.0 | 6.4 | 0.00 | 2.01 | 1.22 | 51 | 1006.8 |
| 20260506181503 | 17 | 12 | 1.6 | 8.0 | 0.00 | 2.01 | 1.22 | 58 | 1007.0 |
| 20260506180007 | 17 | 111 | 0.0 | 6.4 | 0.00 | 2.01 | 1.22 | 57 | 1007.2 |
| 20260506174604 | 16 | 76 | 0.0 | 6.4 | 0.00 | 2.01 | 1.22 | 58 | 1007.2 |
| 20260506173055 | 16 | 6 | 0.0 | 9.7 | 0.00 | 2.01 | 1.22 | 59 | 1007.5 |
| 20260506171550 | 16 | 147 | 0.0 | 9.7 | 0.00 | 2.01 | 1.22 | 58 | 1007.5 |
| 20260506170048 | 17 | 95 | 0.0 | 4.8 | 0.00 | 2.01 | 1.22 | 62 | 1007.6 |
| 20260506164550 | 16 | 117 | 1.6 | 9.7 | 0.00 | 2.01 | 1.22 | 70 | 1007.6 |
| 20260506163042 | 16 | 77 | 0.0 | 4.8 | 0.00 | 2.01 | 1.22 | 66 | 1007.3 |
| 20260506161546 | 16 | 307 | 0.0 | 6.4 | 0.00 | 2.01 | 1.22 | 71 | 1007.1 |
| 20260506160045 | 16 | 281 | 0.0 | 3.2 | 0.00 | 2.01 | 1.22 | 69 | 1007.5 |
| 20260506154536 | 15 | 269 | 0.0 | 6.4 | 0.00 | 2.01 | 1.22 | 76 | 1007.2 |
| 20260506153017 | 15 | 325 | 0.0 | 3.2 | 0.00 | 2.01 | 1.22 | 72 | 1006.8 |
| 20260506151520 | 14 | 12 | 0.0 | 6.4 | 0.00 | 2.01 | 1.22 | 72 | 1006.9 |
| 20260506150107 | 14 | 302 | 0.0 | 3.2 | 0.00 | 2.01 | 1.22 | 75 | 1006.5 |
| 20260506144608 | 14 | 302 | 0.0 | 3.2 | 0.00 | 2.01 | 1.22 | 77 | 1006.6 |
| 20260506143058 | 13 | 46 | 0.0 | 4.8 | 0.00 | 2.01 | 1.22 | 79 | 1006.2 |
| 20260506141553 | 13 | 276 | 0.0 | 1.6 | 0.00 | 2.01 | 1.22 | 85 | 1006.2 |
| 20260506140105 | 12 | 18 | 0.0 | 4.8 | 0.00 | 2.01 | 1.22 | 84 | 1005.8 |